Regional Weather Roundup
Issued by NWS Cleveland, OH

Home | Current Version | Previous Version | Graphics & Text | Print | Product List | Glossary On
Versions: 1 2 3 4 5 6 7 8 9 10 11 12 13 14 15 16 17 18 19 20 21 22 23 24 25 26 27 28 29 30 31 32 33 34 35 36 37 38 39 40 41 42 43 44 45 46 47 48 49 50
000
ASUS41 KCLE 172210
RWRCLE
OHIO REGIONAL WEATHER ROUNDUP
NATIONAL WEATHER SERVICE CLEVELAND, OH
600 PM EDT FRI APR 17 2015

NOTE: "FAIR" INDICATES FEW OR NO CLOUDS BELOW 12,000 FEET WITH NO
SIGNIFICANT WEATHER AND/OR OBSTRUCTIONS TO VISIBILITY.

OHZ001>008-015>018-024>027-034-035-043-044-172300-
   NORTHWEST OHIO

CITY           SKY/WX    TMP DP  RH WIND       PRES   REMARKS
DEFIANCE       NOT AVBL
FINDLAY        SUNNY     74  31  20 SW5       30.01F
TOLEDO EXPRESS MOSUNNY   76  38  25 W14G21    29.99F
TOLEDO EXEC    SUNNY     75  37  25 SW12      30.00F
LIMA           MOSUNNY   74  36  25 CALM      30.03S
$$

OHZ009>014-019>023-028>033-038-089-172300-
   NORTHEAST OHIO

CITY           SKY/WX    TMP DP  RH WIND       PRES   REMARKS
CLE-HOPKINS    SUNNY     68  50  52 N6        30.04F
CLE-LAKEFRONT  SUNNY     56  49  77 NE6       30.03S
CUY CO. ARPT   SUNNY     64  52  63 NW9       30.04S
LORAIN-ELYRIA  SUNNY     69  48  47 NW5       30.02F
ASHTABULA      SUNNY     64  48  56 NW8       30.03F
AKRON-CANTON   MOSUNNY   70  47  43 VRB3      30.02F
WOOSTER        SUNNY     70  45  40 CALM      30.03S
MANSFIELD      SUNNY     70  46  42 NW5       30.04S
YOUNGSTOWN     MOSUNNY   68  46  45 NW5       30.02F
$$

OHZ042-051>053-060>062-070>072-077>081-172300-
  SOUTHWEST OHIO

CITY           SKY/WX    TMP DP  RH WIND       PRES   REMARKS
CINC-COVINGTON CLOUDY    74  48  39 N5        30.02F
CINC-LUNKEN    MOSUNNY   74  48  39 E5        30.01F
HAMILTON       MOSUNNY   75  46  35 CALM      30.03F
DAYTON         PTSUNNY   74  39  28 N6        30.04F
WRIGHT-PAT AFB MOSUNNY   74  38  27 CALM      30.02F
DAYTON GENERAL SUNNY     73  40  30 MISG      30.02F
WILMINGTON     SUNNY     73  41  31 N6        30.03S
$$

OHZ036-037-039>041-045>050-054>059-063>069-073>076-082>088-172300-
  CENTRAL AND SOUTHEAST OHIO

CITY           SKY/WX    TMP DP  RH WIND       PRES   REMARKS
COLUMBUS       PTSUNNY   73  42  32 W6        30.01S
OSU AIRPORT    MOSUNNY   73  43  33 NW9       30.01F
BOLTON FIELD   SUNNY     72  45  37 CALM      30.02F
RICKENBACK AFB MOSUNNY   73  44  35 CALM      30.01S
NEWARK         SUNNY     73  46  38 W5        30.00F
MARION         MOSUNNY   72  42  34 CALM      30.03S
LANCASTER      SUNNY     73  44  35 NW8       30.02F
ZANESVILLE     MOSUNNY   73  48  41 NW3       30.00F
NEW PHILLY     SUNNY     73  46  38 NW7       30.02S
$$



USA.gov is the U.S. government's official web portal to all federal, state and local government web resources and services.